User: anonymous   Login
Location: Possagno
(45.8500°N, 11.8667°E)
Time: 12:26:08
(UTC+00:00)
Language:

NOAA 16 DEB - Orbit

View from above orbital plane
View from above orbital plane
View from above satellite
View from above satellite

Ground track
Ground track

The orbit data is extracted from the following two-line orbital elements,

1 41375U 00055JU  21264.08771228  .00002135  00000-0  10033-2 0  9990
2 41375  98.9490  16.5537 0028059 120.8000 239.5943 14.20929694293299
Epoch (UTC): 21 September 2021 02:06:18
Eccentricity: 0.0028059
inclination: 98.9490°
perigee height: 802 km
apogee height: 842 km
right ascension of ascending node: 16.5537°
argument of perigee: 120.8000°
revolutions per day: 14.20929694
mean anomaly at epoch: 239.5943°
orbit number at epoch: 29329

The dashed part of the orbit path shows where the satellite is in the earth's shadow,  

DLR